[[{"header":{"parameterUnit":"m.s-1","parameterCategory":1,"la1":30.2991,"la2":30.254,"lo1":-89.0895,"lo2":-89.0444,"dy":0.0017,"dx":0.0017,"nx":28,"ny":28,"refTime":"2025-01-09T09:00:00:Z","depth":0,"parameterNumber":2,"parameterNumberName":"U-component_of_WINDS"},"data":[0,0,0,0,0,0,0,0,0,0,0,0,0,0,0,0,0,0,0,0,0,0,0,0,0,0,0,0,0,0,0,0,0,0,0,0,0,0,0,0,0,0,0,0,0,0,0,0,0,0,0,0,0,0,0,0,0,0,-6.2143,-6.2144,0,-6.2251,-6.2252,-6.2253,-6.2269,-6.2268,-6.2267,-6.2266,-6.2373,-6.2377,-6.2381,0,0,0,0,0,0,0,0,0,0,0,0,0,-6.195,-6.1954,-6.2143,-6.2144,-6.2146,-6.225,-6.2252,-6.2253,-6.2269,-6.2268,-6.2266,-6.2265,-6.2372,-6.2377,-6.2381,0,0,0,0,0,0,0,0,0,0,0,0,0,-6.2043,-6.1955,-6.2143,-6.2166,-6.2169,-6.225,-6.2252,-6.2254,-6.2269,-6.2268,-6.2266,-6.2265,-6.2371,-6.2376,-6.2382,-6.2446,0,0,-6.2399,-6.2401,0,0,0,0,0,0,0,0,-6.2038,-6.205,-6.2161,-6.2165,-6.2168,-6.2245,-6.2223,-6.2318,-6.2269,-6.2231,-6.2266,-6.2264,-6.2332,-6.234,-6.2364,-6.2451,-6.2455,-6.24,-6.2403,-6.2405,-6.2407,0,0,0,0,0,0,0,-6.2031,-6.2046,-6.2186,-6.2163,-6.2167,-6.2171,-6.2182,-6.2241,-6.2288,-6.2234,-6.2236,-6.2248,-6.2333,-6.2358,-6.2366,-6.2457,-6.2399,-6.2404,-6.2408,-6.241,-6.2602,-6.2603,0,0,0,0,0,0,-6.2021,-6.204,-6.2182,-6.2189,-6.2098,-6.2176,-6.2189,-6.2222,-6.2288,-6.2296,-6.225,-6.2249,-6.2349,-6.236,-6.237,-6.2449,-6.2405,-6.2411,-6.2414,-6.26,-6.2602,-6.2604,0,0,0,0,0,0,-6.2017,-6.2034,-6.2178,-6.2115,-6.2134,-6.218,-6.2218,-6.2225,-6.225,-6.2299,-6.2307,-6.2266,-6.2348,-6.2362,-6.2427,-6.2452,-6.2413,-6.2418,-6.2598,-6.2601,-6.2603,-6.2606,0,0,0,0,0,0,-6.2011,-6.2032,-6.2057,-6.2115,-6.2137,-6.2233,-6.2219,-6.2228,-6.2259,-6.2259,-6.2317,-6.2325,-6.2348,-6.2418,-6.2433,-6.246,-6.2423,-6.2596,-6.2599,-6.2602,-6.2604,-6.2609,-6.2613,0,0,0,0,0,-6.2004,-6.2053,-6.2058,-6.2075,-6.2169,-6.2235,-6.2247,-6.2273,-6.2262,-6.2287,-6.2319,-6.2323,-6.2448,-6.2425,-6.2441,-6.247,-6.2594,-6.2598,-6.2602,-6.2602,-6.2608,-6.2613,0,0,0,0,0,0,-6.1996,-6.2061,-6.2067,-6.2137,-6.218,-6.2237,-6.227,-6.2278,-6.2325,-6.2323,-6.2353,-6.2366,-6.2429,-6.2456,-6.243,-6.2535,-6.252,-6.2527,-6.2515,-6.252,-6.2525,-6.2516,-6.2427,0,0,0,0,0,-6.2002,-6.205,-6.2105,-6.2161,-6.2183,-6.2223,-6.2252,-6.2269,-6.2314,-6.2332,-6.2369,-6.2412,-6.2461,-6.2493,-6.2541,-6.2609,-6.2621,-6.2637,-6.2641,-6.2645,-6.265,-6.2687,-6.2694,-6.2616,-6.2616,-6.2616,0,0,-6.2016,-6.2057,-6.2086,-6.216,-6.2196,-6.2244,-6.2238,-6.2289,-6.2325,-6.234,-6.2403,-6.2432,-6.2482,-6.2549,-6.258,-6.2574,-6.2674,-6.2649,-6.2652,-6.2655,-6.2692,-6.2699,-6.2705,-6.2619,-6.2619,-6.2618,0,0,-6.2064,-6.2101,-6.2152,-6.2188,-6.2242,-6.2268,-6.228,-6.2336,-6.2356,-6.242,-6.2432,-6.2475,-6.2559,-6.2595,-6.2624,-6.2687,-6.2692,-6.2702,-6.2723,-6.2759,-6.2765,-6.277,-6.2791,-6.2799,-6.2707,-6.2707,-6.2707,0,-6.2073,-6.2147,-6.2176,-6.2228,-6.226,-6.2277,-6.2327,-6.2361,-6.2427,-6.2449,-6.2441,-6.2547,-6.2582,-6.2657,-6.2672,-6.2696,-6.2709,-6.2694,-6.2762,-6.2768,-6.2773,-6.2794,-6.2802,-6.2708,-6.2708,-6.2708,-6.2708,0,-6.2156,-6.2207,-6.2241,-6.2305,-6.2342,-6.2392,-6.2428,-6.2462,-6.2476,-6.2503,-6.2567,-6.2611,-6.2667,-6.2687,-6.2701,-6.2764,-6.2758,-6.2756,-6.2741,-6.2781,-6.28,-6.2808,-6.2709,-6.2708,-6.2708,-6.2708,0,0,-6.22,-6.2281,-6.2293,-6.2322,-6.2383,-6.2423,-6.2474,-6.2531,-6.2558,-6.2604,-6.2647,-6.2718,-6.2717,-6.2749,-6.2768,-6.28,-6.2845,-6.2794,-6.2795,-6.28,-6.2915,-6.2915,-6.2924,-6.285,-6.2852,-6.2853,-6.2911,0,-6.2255,-6.2347,-6.2375,-6.2452,-6.2499,-6.2516,-6.2561,-6.2603,-6.263,-6.2674,-6.2704,-6.2753,-6.2748,-6.2768,-6.2801,-6.2833,-6.2868,-6.2829,-6.2889,-6.2891,-6.2874,-6.2934,-6.2934,-6.2986,-6.2919,-6.292,-6.2921,0,-6.233,-6.2378,-6.246,-6.2515,-6.2535,-6.2575,-6.2629,-6.2671,-6.2719,-6.2736,-6.2773,-6.2789,-6.2843,-6.2826,-6.29,-6.2873,-6.29,-6.2919,-6.2922,-6.2926,-6.2907,-6.2939,-6.3003,-6.301,-6.2934,-6.2933,-6.2932,0,-6.2352,-6.2437,-6.2497,-6.2522,-6.2588,-6.2615,-6.2644,-6.2691,-6.2723,-6.277,-6.279,-6.2843,-6.2871,-6.2911,-6.294,-6.2926,-6.3011,-6.2997,-6.3026,-6.3025,-6.3041,-6.3039,-6.3109,-6.3062,-6.3061,-6.3061,-6.3061,0,-6.2409,-6.2458,-6.2508,-6.2544,-6.2599,-6.2631,-6.2685,-6.2715,-6.2756,-6.2798,-6.2817,-6.2856,-6.2893,-6.2937,-6.2961,-6.3018,-6.3031,-6.3045,-6.305,-6.3043,-6.304,-6.3059,-6.3055,-6.3063,-6.3063,-6.3063,-6.3062,0,-6.2442,-6.2478,-6.2544,-6.2601,-6.2617,-6.2655,-6.2704,-6.274,-6.2768,-6.2821,-6.2836,-6.288,-6.2932,-6.2966,-6.3033,-6.3049,-6.3111,-6.3116,-6.3094,-6.3096,-6.3122,-6.3118,-6.3204,-6.3216,-6.3163,-6.3163,-6.3163,0,-6.2475,-6.2514,-6.2575,-6.2605,-6.2634,-6.2682,-6.2715,-6.2748,-6.2781,-6.2839,-6.2867,-6.2922,-6.2966,-6.305,-6.3087,-6.3138,-6.3144,-6.317,-6.3151,-6.3142,-6.3142,-6.3139,-6.3142,-6.3172,-6.3173,-6.3173,-6.3174,0,-6.253,-6.2545,-6.2592,-6.2645,-6.2684,-6.2727,-6.277,-6.2793,-6.2834,-6.287,-6.2924,-6.2959,-6.3028,-6.3081,-6.3135,-6.3165,-6.3175,-6.318,-6.3189,-6.318,-6.3165,-6.3172,-6.31,-6.3177,-6.3177,-6.3176,-6.3176,-6.3176,-6.2563,-6.2597,-6.2646,-6.2697,-6.2733,-6.2773,-6.281,-6.2843,-6.2889,-6.2947,-6.2964,-6.302,-6.3068,-6.3142,-6.3173,-6.3217,-6.3213,-6.3227,-6.323,-6.3232,-6.3231,-6.316,-6.3227,-6.3227,-6.3227,-6.3227,-6.3227,0,-6.2617,-6.2649,-6.2696,-6.2756,-6.2796,-6.2804,-6.2853,-6.2885,-6.2935,-6.2978,-6.3022,-6.3084,-6.3136,-6.3178,-6.3231,-6.3258,-6.3264,-6.3271,-6.3268,-6.3274,-6.3232,-6.3218,-6.3265,-6.3265,-6.3264,-6.3264,-6.3264,-6.3264,-6.265,-6.2708,-6.2729,-6.2805,-6.2837,-6.2893,-6.2919,-6.2956,-6.2991,-6.3059,-6.3102,-6.313,-6.3173,-6.3229,-6.3276,-6.3287,-6.3305,-6.331,-6.3322,-6.3282,-6.3277,-6.3273,-6.326,-6.3314,-6.3314,-6.336,-6.3361,-6.3361]},{"header":{"parameterUnit":"m.s-1","parameterCategory":1,"la1":30.2991,"la2":30.254,"lo1":-89.0895,"lo2":-89.0444,"dy":0.0017,"dx":0.0017,"nx":28,"ny":28,"refTime":"2025-01-09T09:00:00:Z","depth":0,"parameterNumber":3,"parameterNumberName":"V-component_of_WINDS"},"data":[0,0,0,0,0,0,0,0,0,0,0,0,0,0,0,0,0,0,0,0,0,0,0,0,0,0,0,0,0,0,0,0,0,0,0,0,0,0,0,0,0,0,0,0,0,0,0,0,0,0,0,0,0,0,0,0,0,0,7.7469,7.747,0,7.7552,7.7553,7.7554,7.7474,7.7471,7.7468,7.7465,7.7549,7.7554,7.7559,0,0,0,0,0,0,0,0,0,0,0,0,0,7.7243,7.7248,7.7469,7.747,7.7471,7.7552,7.7553,7.7554,7.7475,7.7471,7.7467,7.7464,7.7547,7.7553,7.7559,0,0,0,0,0,0,0,0,0,0,0,0,0,7.7335,7.7249,7.7469,7.7441,7.744,7.7552,7.7553,7.7555,7.7476,7.7471,7.7466,7.7462,7.7545,7.7552,7.756,7.7703,0,0,7.7584,7.7587,0,0,0,0,0,0,0,0,7.733,7.7344,7.7444,7.7444,7.7442,7.7498,7.7504,7.7604,7.7477,7.7462,7.7465,7.7459,7.7536,7.7544,7.757,7.7707,7.7711,7.7585,7.7589,7.7593,7.7595,0,0,0,0,0,0,0,7.7324,7.734,7.7502,7.7446,7.7444,7.7425,7.7433,7.7523,7.7524,7.7463,7.7457,7.7468,7.7534,7.7562,7.7571,7.7712,7.7584,7.7591,7.7596,7.7599,7.7975,7.798,0,0,0,0,0,0,7.7321,7.7335,7.7499,7.7504,7.7373,7.7433,7.7442,7.7485,7.7523,7.7524,7.7472,7.7464,7.7552,7.7562,7.7574,7.7746,7.7593,7.76,7.7604,7.7969,7.7976,7.7982,0,0,0,0,0,0,7.7316,7.7336,7.7496,7.7418,7.7437,7.7442,7.7491,7.7489,7.7517,7.753,7.753,7.7501,7.7548,7.7563,7.7673,7.7748,7.7603,7.761,7.7963,7.7971,7.7979,7.809,0,0,0,0,0,0,7.731,7.7335,7.7389,7.742,7.7442,7.7593,7.7496,7.7494,7.7531,7.7521,7.7557,7.7559,7.7546,7.7661,7.768,7.7756,7.7616,7.7956,7.7967,7.7976,7.808,7.8101,7.8119,0,0,0,0,0,7.7302,7.7416,7.7392,7.7412,7.7509,7.7598,7.761,7.7593,7.7537,7.7592,7.7601,7.7557,7.7737,7.7673,7.7694,7.7773,7.7952,7.7964,7.7975,7.8071,7.8097,7.8119,0,0,0,0,0,0,7.7391,7.7419,7.7393,7.752,7.7557,7.7584,7.7652,7.762,7.7674,7.7662,7.7639,7.7648,7.7764,7.7779,7.7708,7.7915,7.7835,7.7852,7.7901,7.7925,7.7945,7.7939,7.7623,0,0,0,0,0,7.7426,7.7495,7.7516,7.7626,7.7646,7.7647,7.7684,7.7669,7.7706,7.7721,7.7738,7.7776,7.7841,7.7884,7.7944,7.8082,7.809,7.8147,7.8167,7.8183,7.8197,7.8274,7.8301,7.8021,7.8021,7.8021,0,0,7.7497,7.7521,7.7566,7.7645,7.7672,7.7745,7.766,7.774,7.7795,7.7733,7.7838,7.7853,7.7894,7.8019,7.8075,7.8035,7.8277,7.8198,7.8211,7.8217,7.8289,7.8316,7.8339,7.8029,7.8028,7.8026,0,0,7.7666,7.769,7.7786,7.7816,7.7859,7.7859,7.7882,7.7915,7.7923,7.8028,7.7984,7.8049,7.8161,7.8193,7.8224,7.841,7.8373,7.843,7.8533,7.8608,7.863,7.865,7.8718,7.8742,7.8445,7.8445,7.8445,0,7.7749,7.7858,7.7839,7.7924,7.7961,7.791,7.8008,7.8038,7.8098,7.8125,7.808,7.8222,7.8246,7.838,7.8426,7.8452,7.8479,7.8425,7.8629,7.8648,7.8666,7.873,7.8756,7.8452,7.8451,7.8451,7.845,0,7.7959,7.8036,7.8108,7.817,7.8215,7.8306,7.8302,7.835,7.8332,7.8337,7.8447,7.8475,7.8541,7.8572,7.8553,7.8704,7.8679,7.8632,7.8551,7.87,7.876,7.8784,7.8462,7.8459,7.8457,7.8456,0,0,7.8183,7.8236,7.8263,7.8292,7.8338,7.8396,7.8487,7.8553,7.8596,7.864,7.8716,7.8814,7.8772,7.8808,7.8793,7.8859,7.9008,7.8804,7.8805,7.8842,7.9178,7.9214,7.9242,7.8984,7.8988,7.8992,7.9175,0,7.8354,7.851,7.8498,7.8646,7.8718,7.8674,7.8752,7.879,7.8798,7.8861,7.887,7.8941,7.8879,7.8901,7.8964,7.8976,7.9075,7.8963,7.9055,7.9058,7.9046,7.9274,7.9311,7.9482,7.9198,7.9202,7.9205,0,7.8573,7.8628,7.8784,7.8822,7.8852,7.8922,7.8984,7.9045,7.9087,7.9089,7.9131,7.9107,7.9199,7.9117,7.9245,7.9169,7.9207,7.9219,7.9225,7.9233,7.9141,7.9289,7.9536,7.9562,7.9242,7.9239,7.9236,0,7.8723,7.8835,7.8943,7.8969,7.9016,7.9068,7.909,7.9128,7.917,7.9224,7.9251,7.9316,7.9351,7.9402,7.9396,7.9337,7.9527,7.9444,7.9532,7.9533,7.9574,7.9571,7.9831,7.9597,7.9597,7.9597,7.9596,0,7.8915,7.9013,7.9012,7.9079,7.9188,7.9174,7.9282,7.9298,7.9333,7.9404,7.9369,7.9435,7.9423,7.9491,7.9487,7.9595,7.9611,7.9615,7.9613,7.9619,7.9619,7.9643,7.9631,7.9603,7.9602,7.9601,7.9599,0,7.91,7.9103,7.9219,7.9255,7.9267,7.9346,7.9377,7.9441,7.9448,7.9538,7.9558,7.9569,7.9647,7.9647,7.9734,7.9732,7.9865,7.9849,7.9851,7.9848,7.9937,7.9929,8.0222,8.0261,8.0001,8.0003,8.0006,0,7.9222,7.9297,7.9342,7.9388,7.9413,7.9486,7.953,7.952,7.9567,7.9624,7.9682,7.9756,7.9815,7.9942,7.9958,8.0026,8.0012,8.011,8.0022,8.0027,8.0015,8.0012,8.002,8.0127,8.013,8.0133,8.0135,0,7.9441,7.944,7.9504,7.9571,7.9624,7.9676,7.9723,7.9762,7.9758,7.9813,7.9893,7.9939,8.0031,8.0107,8.0173,8.0196,8.0166,8.0163,8.0187,8.0194,8.0193,8.0196,7.9899,8.0156,8.0153,8.0152,8.0151,8.015,7.9599,7.9664,7.9708,7.9782,7.9817,7.9863,7.9927,7.9943,8.0009,8.0084,8.0074,8.0164,8.0208,8.0295,8.0324,8.0395,8.0361,8.0395,8.0404,8.0413,8.0424,8.0181,8.0407,8.0406,8.0406,8.0405,8.0405,0,7.9817,7.9843,7.9912,7.9981,8.004,8.0007,8.0059,8.0111,8.0191,8.0234,8.0295,8.0388,8.0462,8.0486,8.0558,8.061,8.0599,8.063,8.0626,8.0632,8.0449,8.0422,8.0638,8.0638,8.0638,8.0638,8.0638,8.0638,7.9937,8.0047,8.0052,8.018,8.0206,8.0294,8.0327,8.0371,8.0406,8.0512,8.0574,8.0589,8.0626,8.0701,8.0768,8.0774,8.0802,8.084,8.0839,8.0668,8.0645,8.0622,8.0596,8.0846,8.0846,8.1016,8.1018,8.1019]}]]